Temp
-12 -12 -12 -12 -12 -12 -12 -12 -12 -12 -12 -13 -12 -12 -13 -13 -13 -13 -14 -14 -14 -15 -15 -16 -17 -18 -19 -21 -23 -25 -25 -26 -27 -26 -27 -27 -27 -28 -28 -28 -28 -28 -28
-11 -11 -12 -12 -12 -12 -12 -12 -12 -13 -13 -12 -12 -13 -13 -13 -14 -14 -14 -15 -15 -16 -17 -18 -18 -19 -21 -24 -25 -25 -26 -27 -27 -27 -27 -27 -28 -28 -28 -28 -28 -29 -28
-12 -12 -12 -12 -13 -13 -13 -13 -13 -13 -13 -13 -13 -13 -13 -14 -15 -15 -15 -16 -16 -17 -18 -18 -19 -21 -24 -26 -26 -26 -26 -26 -27 -27 -27 -27 -28 -28 -28 -28 -28 -28 -28
-11 -12 -12 -13 -13 -13 -13 -13 -13 -13 -13 -13 -13 -13 -14 -15 -15 -15 -16 -16 -17 -18 -19 -19 -21 -23 -25 -26 -26 -26 -26 -27 -27 -27 -27 -27 -28 -28 -28 -28 -28 -28 -28
-12 -13 -13 -13 -13 -14 -13 -13 -13 -13 -13 -14 -14 -14 -15 -15 -15 -16 -17 -17 -19 -19 -20 -21 -23 -25 -26 -26 -26 -26 -27 -27 -27 -27 -27 -27 -27 -27 -28 -28 -28 -28 -28
-13 -13 -13 -13 -13 -13 -14 -14 -14 -14 -14 -14 -15 -15 -15 -15 -16 -17 -17 -18 -19 -19 -21 -22 -24 -26 -26 -26 -26 -27 -27 -27 -27 -27 -27 -27 -27 -28 -28 -28 -28 -28 -28
-13 -13 -13 -13 -14 -14 -14 -14 -14 -14 -14 -15 -16 -16 -16 -16 -17 -17 -18 -19 -19 -20 -22 -24 -25 -26 -27 -27 -27 -27 -27 -27 -27 -27 -27 -27 -27 -28 -28 -28 -28 -28 -28
-13 -13 -13 -14 -14 -14 -15 -15 -15 -15 -16 -16 -16 -16 -17 -17 -17 -18 -19 -19 -20 -22 -23 -25 -26 -27 -27 -27 -27 -27 -27 -27 -27 -27 -28 -28 -29 -29 -29 -29 -28 -28 -28
-13 -13 -14 -14 -15 -15 -16 -16 -16 -16 -16 -16 -17 -17 -17 -17 -18 -19 -19 -20 -22 -24 -25 -26 -27 -27 -27 -27 -27 -27 -27 -27 -27 -28 -29 -30 -30 -29 -29 -29 -29 -29 -28
-14 -14 -14 -15 -15 -16 -16 -16 -16 -17 -17 -17 -17 -17 -18 -19 -20 -20 -20 -22 -23 -24 -25 -26 -26 -26 -26 -27 -27 -27 -27 -27 -28 -29 -30 -30 -30 -30 -29 -29 -29 -29 -28
-14 -15 -15 -15 -16 -16 -16 -16 -17 -17 -17 -17 -18 -18 -19 -20 -20 -20 -21 -24 -24 -25 -26 -26 -26 -26 -26 -27 -27 -27 -27 -27 -28 -29 -30 -30 -30 -30 -30 -29 -29 -29 -28
-15 -15 -15 -16 -16 -16 -16 -17 -17 -17 -18 -18 -19 -19 -20 -20 -20 -21 -23 -25 -25 -26 -27 -26 -26 -26 -26 -27 -27 -27 -27 -28 -29 -29 -30 -30 -30 -30 -30 -30 -29 -28 -28
-15 -15 -16 -16 -16 -16 -17 -17 -17 -18 -19 -19 -19 -20 -21 -21 -21 -23 -25 -26 -26 -27 -27 -27 -26 -26 -27 -27 -27 -28 -27 -28 -29 -29 -29 -29 -29 -29 -29 -29 -28 -28 -28
-15 -16 -16 -16 -17 -17 -17 -18 -18 -19 -19 -20 -21 -21 -21 -22 -23 -24 -25 -26 -27 -27 -27 -27 -26 -26 -27 -27 -27 -27 -28 -28 -29 -29 -28 -28 -28 -28 -28 -28 -28 -27 -27
-16 -16 -16 -17 -17 -17 -18 -18 -19 -19 -20 -21 -21 -22 -22 -23 -24 -25 -26 -27 -27 -27 -26 -27 -26 -26 -27 -27 -27 -27 -28 -28 -29 -28 -28 -27 -27 -26 -27 -26 -26 -26 -26
-15 -16 -16 -17 -18 -18 -19 -19 -20 -20 -21 -22 -22 -23 -24 -25 -25 -26 -26 -27 -27 -27 -27 -27 -26 -26 -27 -27 -27 -27 -27 -28 -28 -27 -27 -26 -26 -26 -27 -27 -27 -27 -27
-17 -17 -18 -18 -19 -19 -20 -20 -20 -21 -22 -22 -23 -24 -25 -26 -27 -27 -27 -27 -27 -27 -27 -27 -27 -27 -27 -27 -27 -27 -27 -27 -27 -27 -26 -26 -26 -26 -27 -26 -26 -26 -26
-18 -18 -18 -19 -19 -20 -20 -21 -21 -22 -23 -24 -25 -26 -27 -28 -28 -28 -27 -28 -28 -28 -27 -27 -27 -27 -27 -27 -27 -27 -27 -27 -27 -26 -26 -26 -26 -26 -26 -26 -26 -26 -26
-18 -19 -19 -20 -20 -20 -21 -22 -23 -24 -25 -26 -27 -28 -28 -29 -29 -28 -28 -28 -28 -28 -28 -28 -27 -27 -27 -27 -27 -27 -27 -27 -27 -26 -26 -26 -26 -26 -26 -26 -26 -26 -26
-19 -19 -20 -20 -21 -21 -22 -24 -24 -25 -27 -27 -28 -28 -29 -29 -29 -29 -29 -29 -28 -28 -28 -28 -28 -28 -28 -28 -27 -27 -27 -27 -27 -27 -26 -27 -26 -26 -26 -26 -26 -26 -26
-20 -20 -20 -22 -23 -24 -25 -25 -26 -27 -27 -28 -28 -29 -29 -29 -29 -29 -29 -29 -29 -29 -29 -29 -28 -28 -28 -28 -28 -28 -28 -28 -28 -27 -27 -27 -27 -27 -27 -27 -27 -27 -27
-21 -22 -23 -24 -25 -25 -26 -27 -27 -28 -28 -29 -29 -29 -29 -29 -29 -29 -29 -29 -29 -29 -29 -29 -29 -29 -28 -28 -28 -28 -28 -28 -28 -28 -27 -27 -27 -27 -27 -27 -27 -27 -26
-23 -24 -25 -25 -26 -27 -27 -28 -28 -29 -29 -29 -29 -29 -29 -29 -29 -29 -29 -29 -29 -29 -29 -29 -29 -29 -29 -28 -28 -28 -28 -28 -28 -28 -28 -27 -27 -27 -27 -27 -27 -27 -26
-25 -26 -26 -27 -27 -28 -28 -29 -29 -29 -29 -29 -29 -29 -29 -29 -29 -29 -29 -29 -29 -29 -29 -29 -29 -29 -29 -29 -29 -29 -28 -28 -28 -28 -28 -28 -27 -27 -27 -27 -27 -27 -27
-26 -27 -28 -28 -28 -29 -29 -29 -29 -29 -29 -29 -29 -29 -29 -29 -29 -29 -30 -29 -29 -30 -29 -29 -29 -29 -29 -29 -29 -29 -29 -29 -29 -29 -28 -28 -28 -28 -28 -28 -28 -27 -27
-28 -29 -29 -29 -29 -29 -29 -29 -29 -29 -29 -29 -29 -30 -30 -30 -30 -30 -30 -30 -30 -30 -30 -29 -29 -29 -29 -29 -29 -29 -29 -29 -29 -29 -29 -29 -28 -28 -28 -28 -28 -28 -27
Height
5743 5742 5742 5742 5741 5740 5738 5737 5735 5732 5727 5721 5715 5710 5704 5697 5689 5680 5672 5663 5652 5640 5630 5618 5606 5595 5584 5573 5563 5554 5547 5537 5529 5530 5516 5510 5502 5495 5489 5484 5480 5479 5479
5732 5732 5732 5732 5731 5729 5727 5726 5724 5720 5715 5708 5703 5697 5690 5682 5674 5666 5657 5646 5634 5624 5613 5601 5589 5577 5567 5557 5550 5543 5535 5527 5518 5514 5510 5502 5493 5486 5480 5476 5472 5468 5468
5722 5722 5722 5721 5720 5719 5717 5715 5712 5707 5700 5695 5689 5683 5676 5669 5661 5651 5641 5630 5619 5607 5596 5586 5574 5562 5553 5545 5539 5531 5523 5515 5508 5500 5499 5491 5485 5478 5472 5467 5463 5460 5459
5711 5711 5710 5710 5709 5708 5706 5702 5698 5693 5686 5681 5676 5669 5663 5655 5645 5635 5625 5614 5603 5592 5582 5570 5559 5549 5540 5533 5526 5519 5512 5504 5495 5488 5483 5477 5471 5466 5461 5458 5455 5451 5451
5700 5700 5700 5699 5697 5696 5694 5690 5684 5679 5674 5668 5662 5655 5648 5639 5630 5620 5610 5599 5589 5578 5566 5556 5545 5536 5527 5519 5511 5505 5497 5490 5482 5474 5468 5462 5456 5451 5446 5445 5443 5442 5442
5689 5689 5688 5687 5686 5684 5680 5675 5670 5665 5660 5654 5648 5641 5632 5624 5615 5606 5594 5585 5576 5565 5554 5543 5533 5524 5516 5508 5499 5491 5482 5474 5467 5458 5453 5446 5441 5435 5432 5431 5431 5431 5433
5678 5677 5677 5676 5674 5670 5666 5662 5656 5651 5645 5640 5632 5624 5616 5609 5599 5589 5581 5573 5562 5550 5540 5530 5521 5512 5503 5497 5490 5482 5472 5461 5451 5443 5435 5427 5422 5418 5415 5416 5418 5421 5422
5666 5665 5664 5662 5659 5655 5652 5647 5641 5636 5630 5624 5617 5610 5601 5592 5583 5575 5567 5558 5547 5536 5526 5516 5508 5500 5491 5484 5478 5470 5461 5449 5440 5428 5417 5409 5402 5401 5401 5403 5406 5411 5414
5654 5653 5651 5648 5644 5642 5637 5632 5627 5621 5615 5609 5603 5594 5586 5578 5569 5562 5554 5543 5532 5523 5514 5504 5494 5487 5478 5468 5463 5457 5450 5438 5427 5415 5404 5396 5390 5390 5391 5393 5397 5402 5405
5641 5639 5636 5633 5631 5627 5622 5617 5612 5607 5601 5594 5586 5579 5570 5563 5556 5548 5537 5526 5520 5513 5502 5493 5484 5475 5466 5457 5450 5445 5439 5429 5418 5406 5397 5390 5386 5383 5384 5386 5389 5394 5397
5627 5625 5622 5620 5616 5612 5608 5603 5598 5592 5585 5578 5572 5565 5558 5551 5543 5533 5522 5513 5507 5499 5489 5481 5472 5464 5456 5446 5440 5435 5428 5420 5410 5401 5394 5388 5383 5379 5378 5379 5382 5386 5390
5613 5611 5608 5605 5601 5596 5593 5589 5584 5577 5571 5564 5557 5549 5543 5536 5527 5518 5509 5502 5494 5486 5478 5470 5463 5455 5447 5439 5432 5427 5420 5411 5404 5397 5391 5386 5381 5377 5375 5375 5377 5381 5385
5598 5596 5593 5589 5586 5583 5579 5573 5568 5562 5557 5550 5543 5537 5530 5523 5516 5509 5501 5491 5483 5475 5468 5460 5454 5447 5439 5431 5426 5420 5413 5405 5399 5394 5389 5385 5381 5377 5375 5374 5375 5378 5381
5583 5580 5577 5574 5572 5568 5564 5559 5554 5548 5543 5537 5530 5524 5517 5509 5504 5499 5491 5482 5475 5468 5460 5453 5447 5440 5432 5427 5421 5415 5407 5400 5396 5391 5387 5383 5378 5375 5373 5373 5375 5377 5380
5569 5567 5564 5561 5558 5554 5549 5544 5539 5534 5529 5523 5517 5511 5504 5498 5493 5486 5479 5473 5466 5459 5453 5447 5441 5433 5426 5422 5417 5411 5402 5397 5393 5390 5386 5382 5378 5375 5374 5374 5375 5377 5380
5554 5552 5549 5545 5542 5538 5534 5529 5525 5519 5514 5509 5503 5497 5491 5487 5482 5475 5468 5462 5456 5450 5445 5440 5434 5427 5422 5418 5413 5407 5401 5397 5393 5390 5386 5382 5379 5376 5374 5374 5376 5377 5379
5538 5536 5533 5529 5526 5523 5519 5514 5509 5503 5498 5494 5488 5484 5480 5474 5467 5464 5460 5452 5446 5442 5438 5433 5428 5422 5417 5413 5409 5404 5399 5395 5393 5390 5387 5384 5380 5378 5377 5377 5378 5379 5380
5522 5520 5518 5515 5512 5508 5503 5498 5492 5487 5482 5477 5473 5470 5465 5460 5456 5452 5449 5444 5439 5434 5430 5426 5421 5416 5411 5408 5404 5401 5397 5394 5392 5391 5389 5386 5383 5381 5379 5379 5381 5382 5383
5508 5505 5503 5500 5496 5491 5487 5482 5477 5473 5469 5466 5462 5458 5454 5450 5446 5441 5437 5434 5431 5426 5422 5418 5414 5410 5406 5403 5399 5396 5394 5392 5390 5390 5389 5388 5386 5385 5383 5383 5384 5385 5386
5491 5488 5486 5483 5478 5474 5470 5467 5464 5461 5458 5454 5451 5447 5444 5440 5436 5431 5426 5422 5419 5416 5412 5409 5405 5402 5399 5396 5394 5391 5390 5389 5387 5388 5388 5388 5388 5388 5388 5388 5388 5389 5390
5473 5471 5469 5465 5461 5458 5455 5453 5450 5447 5444 5441 5437 5433 5431 5429 5425 5421 5417 5412 5409 5405 5402 5399 5396 5394 5391 5389 5387 5385 5384 5384 5384 5384 5386 5386 5387 5388 5388 5390 5390 5391 5392
5457 5454 5450 5448 5446 5444 5440 5437 5436 5433 5430 5426 5423 5420 5417 5415 5412 5409 5405 5401 5397 5394 5391 5388 5385 5384 5383 5381 5379 5378 5378 5378 5379 5379 5381 5383 5384 5385 5387 5388 5389 5390 5391
5439 5437 5435 5433 5431 5428 5426 5423 5420 5417 5413 5409 5407 5405 5403 5400 5398 5395 5392 5389 5385 5382 5379 5377 5374 5374 5373 5372 5371 5371 5370 5371 5372 5374 5375 5378 5380 5382 5384 5386 5388 5389 5390
5424 5422 5421 5419 5416 5413 5409 5406 5402 5399 5395 5393 5391 5388 5386 5384 5381 5379 5376 5375 5372 5368 5367 5365 5364 5363 5362 5362 5362 5362 5362 5363 5365 5367 5369 5371 5375 5378 5380 5382 5384 5386 5388
5409 5407 5404 5401 5398 5395 5392 5388 5384 5380 5377 5375 5371 5368 5366 5364 5362 5360 5358 5357 5355 5354 5353 5352 5352 5351 5351 5352 5352 5353 5354 5355 5356 5359 5361 5364 5367 5371 5375 5377 5380 5382 5384
5393 5390 5386 5383 5379 5375 5372 5368 5365 5361 5358 5354 5351 5348 5345 5342 5340 5337 5336 5336 5336 5337 5336 5337 5338 5339 5339 5340 5341 5342 5344 5345 5347 5350 5353 5356 5359 5363 5367 5371 5374 5377 5379
Wind_Speed
46 47 47 48 50 50 52 53 54 57 59 62 65 67 68 70 73 73 76 78 82 84 87 90 91 89 84 75 65 58 53 50 47 36 45 43 41 43 44 40 41 38 38
47 47 48 50 52 53 54 54 56 58 61 65 66 68 70 71 72 74 77 80 83 85 89 88 85 84 75 62 57 53 51 49 51 47 44 44 45 44 41 39 38 40 35
48 48 50 51 52 54 55 55 57 59 63 64 67 69 71 71 72 75 77 82 84 87 86 84 83 74 62 55 54 53 53 53 51 51 45 47 45 46 41 37 37 37 36
47 51 52 52 54 55 54 56 57 59 63 66 69 70 69 70 72 75 80 83 85 85 83 82 74 65 58 55 55 55 54 55 54 52 51 50 54 49 44 40 36 34 36
49 51 53 54 54 54 55 57 58 61 65 68 68 68 69 71 73 78 80 82 83 80 79 73 67 60 56 56 56 56 56 56 53 52 53 56 54 46 43 42 39 37 32
49 51 52 53 54 54 56 57 60 63 65 67 65 66 70 71 75 79 80 81 79 79 73 67 63 58 55 55 56 57 57 57 55 56 58 57 50 47 44 41 40 36 33
49 51 51 51 53 53 55 58 61 63 66 63 65 68 70 73 77 79 80 78 78 74 68 63 59 56 54 54 54 55 57 59 58 61 61 57 53 45 41 37 37 34 31
49 50 50 52 50 51 54 58 63 63 62 64 67 69 72 75 78 79 74 76 75 67 65 62 58 55 56 57 55 54 56 57 58 62 60 52 42 33 33 32 33 29 27
50 51 50 50 52 51 55 57 60 61 63 65 68 71 75 77 77 74 75 75 68 62 61 60 57 58 60 61 58 54 53 55 58 58 48 42 30 24 25 26 29 26 24
45 46 49 52 52 53 57 59 61 62 65 68 70 74 75 75 74 73 72 66 62 61 59 57 57 55 53 54 50 46 48 51 54 44 34 30 22 22 21 23 25 25 25
44 47 50 52 53 56 59 59 60 63 65 69 72 73 73 72 72 72 68 61 63 62 57 52 50 52 50 49 42 41 44 47 44 33 28 26 22 19 19 19 23 23 23
48 51 53 52 55 56 57 60 63 65 68 70 71 70 69 70 71 68 63 59 61 56 50 48 47 47 47 41 37 40 44 44 33 28 27 24 21 17 13 16 20 20 20
51 51 50 54 56 57 59 62 65 66 69 70 68 66 67 68 65 60 56 57 55 49 46 45 45 45 43 37 36 38 41 38 27 25 23 21 19 20 17 10 10 15 14
50 50 52 55 56 58 62 64 66 69 68 67 65 65 65 64 62 59 58 54 48 44 41 41 42 43 38 32 35 39 38 29 23 21 20 24 25 20 13 5 5 8 14
49 51 54 56 59 62 64 65 67 66 65 64 64 64 63 60 58 56 56 48 42 38 37 38 38 39 34 31 32 37 34 20 18 16 20 20 16 12 8 6 10 14 18
50 54 58 61 62 63 64 64 63 62 62 62 62 61 56 55 55 56 53 45 40 37 35 35 35 35 30 29 29 33 23 19 13 16 16 13 11 6 1 7 13 11 13
56 59 60 60 62 62 61 60 60 61 62 61 60 58 56 55 55 53 46 40 38 36 35 33 32 31 28 26 26 28 22 18 12 13 10 9 8 2 5 11 11 13 14
57 57 58 58 59 59 60 61 60 60 59 56 54 52 53 54 53 47 42 40 40 39 36 34 31 30 26 24 22 24 20 17 13 9 5 6 6 5 8 12 12 13 14
54 55 56 57 59 59 60 59 58 55 51 48 49 51 52 50 46 45 44 43 41 39 39 37 33 30 27 22 20 21 18 16 13 10 4 1 6 10 13 15 15 15 15
54 56 57 59 58 57 56 55 53 50 49 51 52 51 47 43 44 45 45 46 45 42 41 40 36 32 28 22 19 19 17 14 14 13 10 6 4 8 12 14 15 15 14
55 56 56 55 55 54 53 51 49 50 52 53 50 47 44 43 45 46 46 48 47 43 40 39 36 35 31 25 19 18 17 14 16 15 15 11 9 9 9 9 11 11 9
54 54 53 52 51 50 50 50 53 54 54 50 49 46 46 47 48 49 49 51 50 46 41 38 36 34 33 28 22 20 17 16 17 17 16 18 15 13 11 10 10 8 7
51 50 50 49 49 51 53 55 55 53 52 52 50 49 49 51 53 53 54 55 52 47 41 38 36 34 33 30 26 22 19 19 19 20 18 21 20 18 15 15 12 12 9
47 49 50 52 53 55 55 54 54 56 55 53 54 53 55 57 58 58 59 59 53 46 42 38 36 33 33 31 28 25 22 21 21 22 22 22 25 22 19 16 13 13 13
50 52 52 54 54 54 55 57 58 58 57 58 59 61 63 64 65 65 64 61 50 44 43 40 37 34 33 33 30 28 26 25 24 24 26 25 28 28 23 20 17 16 16
51 52 53 54 57 58 60 60 61 63 64 66 67 69 71 72 72 69 62 55 52 51 48 45 42 37 34 34 34 30 29 28 27 27 27 28 28 32 28 23 21 19 18
Wind_Direction
258 261 265 270 271 272 275 278 284 287 289 291 293 298 302 303 303 304 305 306 307 310 314 316 320 324 324 319 315 313 316 314 312 318 313 315 311 306 298 293 287 275 262
258 261 265 267 269 271 275 280 285 288 291 293 297 300 300 301 303 305 306 307 310 315 317 320 324 326 321 314 311 313 315 313 307 309 310 309 307 306 295 292 291 280 266
259 262 264 266 269 273 277 282 286 289 292 295 298 299 300 303 304 305 307 310 314 316 319 324 327 323 314 309 310 312 314 313 310 307 306 305 303 300 298 288 290 290 268
262 263 265 268 270 275 279 283 287 291 293 296 297 297 301 303 304 307 309 313 316 318 324 327 324 317 309 306 307 311 312 313 307 305 304 303 304 298 289 285 282 287 277
261 263 266 269 272 276 281 286 289 292 293 294 296 300 301 303 306 307 312 317 318 322 326 325 320 313 308 308 309 311 312 313 309 304 303 304 301 293 283 277 280 277 280
262 263 266 270 275 279 284 287 288 289 292 293 297 300 302 304 306 310 314 316 319 325 325 322 317 311 308 307 309 311 312 313 310 307 307 304 298 288 283 270 271 278 272
263 266 269 275 279 282 284 285 288 290 291 296 299 301 303 305 309 312 315 317 324 325 324 319 315 311 307 307 308 310 312 313 310 310 308 305 297 285 278 265 265 270 269
265 268 272 275 278 281 284 285 285 289 293 297 299 301 304 308 310 312 314 320 323 324 322 318 312 309 307 306 306 308 311 312 313 313 311 307 301 280 272 256 257 264 260
268 271 274 276 278 281 283 282 288 292 294 296 299 302 307 309 311 312 317 323 324 323 318 314 312 309 307 306 305 306 310 312 315 316 313 312 299 286 273 258 254 254 249
271 275 276 278 281 283 286 289 290 293 295 297 300 303 305 309 311 314 320 323 323 320 316 313 312 313 311 311 307 306 312 315 319 319 316 320 308 285 273 259 251 247 246
279 279 281 283 286 286 287 289 290 292 294 297 301 304 306 307 311 318 320 322 322 320 317 316 316 316 314 315 312 313 317 320 322 325 324 318 317 302 274 258 247 240 242
279 281 284 285 284 286 288 289 290 293 296 299 301 303 305 309 314 320 322 322 321 319 316 318 319 319 318 316 315 319 321 325 320 324 330 331 330 323 302 259 247 239 237
281 282 283 281 283 287 286 287 289 293 296 298 300 303 306 311 318 320 319 320 318 316 316 318 320 321 321 318 320 321 324 325 316 320 328 328 330 332 319 289 236 236 232
281 280 277 280 283 284 285 288 291 292 295 298 301 304 309 313 316 318 319 320 315 313 314 317 318 321 322 319 323 325 326 320 313 317 322 323 321 320 320 299 209 211 231
277 277 280 281 281 283 285 288 289 291 295 299 303 307 310 312 315 315 318 316 313 312 314 315 315 322 322 320 322 329 330 316 317 315 321 325 322 315 299 250 216 225 243
277 278 277 278 281 282 284 286 290 294 297 301 304 306 307 310 313 316 317 314 313 314 313 313 315 322 319 318 322 330 331 321 318 318 323 327 333 333 148 163 157 179 180
274 276 277 278 280 282 285 288 293 296 299 301 304 306 308 311 314 314 312 312 312 310 310 310 311 318 315 315 320 327 326 316 305 315 325 351 7 83 133 156 144 160 160
272 275 277 280 282 284 289 292 295 298 299 302 303 306 309 311 310 311 312 313 312 309 308 307 307 311 310 308 311 320 320 310 292 293 315 8 34 94 132 149 144 137 140
275 278 280 281 285 288 291 294 296 296 297 299 302 305 305 306 306 308 311 311 309 307 304 304 303 301 303 297 301 312 310 305 275 256 249 70 82 104 111 124 132 135 136
277 278 280 283 287 291 293 293 294 295 296 299 299 300 301 300 303 308 311 311 308 304 300 299 298 295 296 287 286 301 298 292 264 249 229 234 175 140 130 126 123 119 116
277 279 283 289 291 291 291 291 292 293 295 295 296 296 293 295 301 305 310 311 309 305 298 294 291 289 286 282 273 284 283 274 258 251 231 223 201 181 170 170 148 127 119
280 284 288 289 290 290 289 290 291 291 292 293 293 289 287 292 299 303 308 309 307 304 301 293 288 282 278 278 265 264 270 262 250 243 238 221 214 208 207 203 179 148 130
285 288 289 288 287 288 288 288 288 289 291 291 289 285 286 290 295 298 303 307 304 298 296 293 286 280 275 271 264 254 261 252 248 235 230 225 217 215 213 204 204 178 176
287 288 287 286 286 285 285 287 289 290 290 288 285 284 286 289 291 294 298 301 299 292 289 287 283 277 271 264 263 251 250 248 241 236 228 221 219 213 211 213 212 204 194
285 284 284 284 285 287 288 289 289 288 287 285 284 284 285 287 290 292 294 295 289 286 284 280 277 274 267 261 259 250 242 244 240 237 230 225 219 219 215 213 216 217 207
283 283 285 287 288 288 289 289 288 287 286 286 285 285 287 289 290 290 289 286 284 284 278 272 268 266 264 258 253 250 240 238 237 236 232 226 223 218 215 214 217 220 220